START_TIME,STEP,MOV.,M6,t_acc.,M7,t_acc.,M19,t_acc.,H36,t_acc.
1980-11-14 21:00:15.680 ,5,0,0.,12.0,0.,12.0,0.,12.0,0.,12.0
1980-11-14 21:00:27.680 ,5,0,0.,12.0,0.,12.0,0.,12.0,0.,12.0
1980-11-14 21:00:39.680 ,4,1,0.,12.0,0.,12.0,0.,12.0,0.,12.0
1980-11-14 21:00:51.680 ,4,1,0.,12.0,0.,12.0,0.,12.0,0.,12.0
1980-11-14 21:01:03.680 ,4,0,0.,12.0,0.,12.0,0.,12.0,0.,12.0
1980-11-14 21:01:15.680 ,4,0,0.,12.0,0.,12.0,0.,12.0,0.,12.0
1980-11-14 21:01:27.680 ,3,1,0.,12.0,0.,12.0,0.,12.0,0.,12.0
1980-11-14 21:01:39.680 ,3,1,0.,12.0,0.,12.0,0.,12.0,0.,12.0
1980-11-14 21:01:51.680 ,3,0,0.,12.0,0.,12.0,0.,12.0,0.,12.0
1980-11-14 21:02:03.680 ,3,0,0.,12.0,0.,12.0,0.,12.0,0.,12.0
1980-11-14 21:02:15.680 ,2,1,0.,12.0,0.,12.0,0.,12.0,0.,12.0
1980-11-14 21:02:27.680 ,2,1,0.,12.0,0.,12.0,0.,12.0,0.,12.0
1980-11-14 21:02:39.680 ,2,0,0.,12.0,0.,12.0,0.,12.0,0.,12.0
1980-11-14 21:02:51.680 ,2,0,0.,12.0,0.,12.0,0.,12.0,0.,12.0
1980-11-14 21:03:03.680 ,1,1,0.,12.0,0.,12.0,0.,12.0,0.,12.0
1980-11-14 21:03:15.680 ,1,1,0.,12.0,0.,12.0,0.,12.0,0.,12.0
1980-11-14 21:03:27.680 ,1,0,0.,12.0,0.,12.0,0.,12.0,0.,12.0
1980-11-14 21:03:39.680 ,1,0,0.,12.0,0.,12.0,0.,12.0,0.,12.0
1980-11-14 21:03:51.680 ,0,1,0.,12.0,0.,12.0,0.,12.0,0.,12.0
1980-11-14 21:04:03.680 ,0,1,0.,12.0,0.,12.0,0.,12.0,0.,12.0
1980-11-14 21:04:15.680 ,0,0,0.,12.0,0.,12.0,0.,12.0,0.,12.0
1980-11-14 21:04:27.680 ,0,0,0.,12.0,0.,12.0,0.,12.0,0.,12.0
1980-11-14 21:04:39.680 ,0,1,0.,12.0,0.,12.0,0.,12.0,0.,12.0
1980-11-14 21:04:51.680 ,0,1,0.,12.0,0.,12.0,0.,12.0,0.,12.0
1980-11-14 21:05:03.680 ,0,0,0.,12.0,0.,12.0,0.,12.0,0.,12.0
1980-11-14 21:05:15.680 ,0,0,0.,12.0,0.,12.0,0.,12.0,0.,12.0
1980-11-14 21:05:27.680 ,1,1,0.,12.0,0.,12.0,0.,12.0,0.,12.0
1980-11-14 21:05:39.680 ,1,1,0.,12.0,0.,12.0,0.,12.0,0.,12.0
1980-11-14 21:05:51.680 ,1,0,0.,12.0,0.,12.0,0.,12.0,0.,12.0
1980-11-14 21:06:03.680 ,1,0,0.,12.0,0.,12.0,0.,12.0,0.,12.0
1980-11-14 21:06:15.680 ,2,1,0.,12.0,0.,12.0,0.,12.0,0.,12.0
1980-11-14 21:06:27.680 ,2,1,0.,12.0,0.,12.0,0.,12.0,0.,12.0
1980-11-14 21:06:39.680 ,2,0,0.,12.0,0.,12.0,0.,12.0,0.,12.0
1980-11-14 21:06:51.680 ,2,0,0.,12.0,0.,12.0,0.,12.0,0.,12.0
1980-11-14 21:07:03.680 ,3,1,0.,12.0,0.,12.0,0.,12.0,0.,12.0
1980-11-14 21:07:15.680 ,3,1,0.,12.0,0.,12.0,0.,12.0,0.,12.0
1980-11-14 21:07:27.680 ,3,0,0.,12.0,0.,12.0,0.,12.0,0.,12.0
1980-11-14 21:07:39.680 ,3,0,0.,12.0,0.,12.0,0.,12.0,0.,12.0
1980-11-14 21:07:51.680 ,4,1,0.,12.0,0.,12.0,0.,12.0,0.,12.0
1980-11-14 21:08:03.680 ,4,1,0.,12.0,0.,12.0,0.,12.0,0.,12.0
1980-11-14 21:08:15.680 ,4,0,0.,12.0,0.,12.0,0.,12.0,0.,12.0
1980-11-14 21:08:27.680 ,4,0,0.,12.0,0.,12.0,0.,12.0,0.,12.0
1980-11-14 21:08:39.680 ,5,1,0.,12.0,0.,12.0,0.,12.0,0.,12.0
1980-11-14 21:08:51.680 ,5,1,0.,12.0,0.,12.0,0.,12.0,0.,12.0
1980-11-14 21:09:03.680 ,5,0,0.,12.0,0.,12.0,0.,12.0,0.,12.0
1980-11-14 21:09:15.680 ,5,0,0.,12.0,0.,12.0,0.,12.0,0.,12.0
1980-11-14 21:09:27.680 ,6,1,0.,12.0,0.,12.0,0.,12.0,0.,12.0
1980-11-14 21:09:39.680 ,6,1,0.,12.0,0.,12.0,0.,12.0,0.,12.0
1980-11-14 21:09:51.680 ,6,0,0.,12.0,0.,12.0,0.,12.0,0.,12.0
1980-11-14 21:10:03.680 ,6,0,0.,12.0,0.,12.0,0.,12.0,0.,12.0
1980-11-14 21:10:15.680 ,7,1,0.,12.0,0.,12.0,0.,12.0,0.,12.0
1980-11-14 21:10:27.680 ,7,1,0.,12.0,0.,12.0,0.,12.0,0.,12.0
1980-11-14 21:10:39.680 ,7,0,0.,12.0,0.,12.0,0.,12.0,0.,12.0
1980-11-14 21:10:51.680 ,7,0,0.,12.0,0.,12.0,0.,12.0,0.,12.0
1980-11-14 21:11:03.680 ,7,1,0.,12.0,0.,12.0,0.,12.0,0.,12.0
1980-11-14 21:11:15.680 ,7,1,0.,12.0,0.,12.0,0.,12.0,0.,12.0
1980-11-14 21:11:27.680 ,7,0,0.,12.0,0.,12.0,0.,12.0,0.,12.0
1980-11-14 21:11:39.680 ,7,0,0.,12.0,0.,12.0,0.,12.0,0.,12.0
1980-11-14 21:11:51.680 ,6,1,0.,12.0,0.,12.0,0.,12.0,0.,12.0
1980-11-14 21:12:03.680 ,6,1,0.,12.0,0.,12.0,0.,12.0,0.,12.0
1980-11-14 21:12:15.680 ,6,0,0.,12.0,0.,12.0,0.,12.0,0.,12.0
1980-11-14 21:12:27.680 ,6,0,0.,12.0,0.,12.0,0.,12.0,0.,12.0
1980-11-14 21:12:39.680 ,5,1,0.,12.0,0.,12.0,0.,12.0,0.,12.0
1980-11-14 21:12:51.680 ,5,1,0.,12.0,0.,12.0,0.,12.0,0.,12.0
1980-11-14 21:13:03.680 ,5,0,0.,12.0,0.,12.0,0.,12.0,0.,12.0
1980-11-14 21:13:15.680 ,5,0,0.,12.0,0.,12.0,0.,12.0,0.,12.0
1980-11-14 21:13:27.680 ,4,1,0.,12.0,0.,12.0,0.,12.0,0.,12.0
1980-11-14 21:13:39.680 ,4,1,0.,12.0,0.,12.0,0.,12.0,0.,12.0
1980-11-14 21:13:51.680 ,4,0,0.,12.0,0.,12.0,0.,12.0,0.,12.0
1980-11-14 21:14:03.680 ,4,0,0.,12.0,0.,12.0,0.,12.0,0.,12.0
1980-11-14 21:14:15.680 ,3,1,0.,12.0,0.,12.0,0.,12.0,0.,12.0
1980-11-14 21:14:27.680 ,3,1,0.,12.0,0.,12.0,0.,12.0,0.,12.0
1980-11-14 21:14:39.680 ,3,0,0.,12.0,0.,12.0,0.,12.0,0.,12.0
1980-11-14 21:14:51.680 ,3,0,0.,12.0,0.,12.0,0.,12.0,0.,12.0
1980-11-14 21:15:03.680 ,2,1,0.,12.0,0.,12.0,0.,12.0,0.,12.0
1980-11-14 21:15:15.680 ,2,1,0.,12.0,0.,12.0,0.,12.0,0.,12.0
1980-11-14 21:15:27.680 ,2,0,0.,12.0,0.,12.0,0.,12.0,0.,12.0
1980-11-14 21:15:39.680 ,2,0,0.,12.0,0.,12.0,0.,12.0,0.,12.0
1980-11-14 21:15:51.680 ,1,1,0.,12.0,0.,12.0,0.,12.0,0.,12.0
1980-11-14 21:16:03.680 ,1,1,0.,12.0,0.,12.0,0.,12.0,0.,12.0
1980-11-14 21:16:15.680 ,1,0,0.,12.0,0.,12.0,0.,12.0,0.,12.0
1980-11-14 21:16:27.680 ,1,0,0.,12.0,0.,12.0,0.,12.0,0.,12.0
1980-11-14 21:16:39.680 ,0,1,0.,12.0,0.,12.0,0.,12.0,0.,12.0
1980-11-14 21:16:51.680 ,0,1,0.,12.0,0.,12.0,0.,12.0,0.,12.0
1980-11-14 21:17:03.680 ,0,0,0.,12.0,0.,12.0,0.,12.0,0.,12.0
1980-11-14 21:17:15.680 ,0,0,0.,12.0,0.,12.0,0.,12.0,0.,12.0
1980-11-14 21:17:27.680 ,0,1,0.,12.0,0.,12.0,0.,12.0,0.,12.0
1980-11-14 21:17:39.680 ,0,1,0.,12.0,0.,12.0,0.,12.0,0.,12.0
1980-11-14 21:17:51.680 ,0,0,0.,12.0,0.,12.0,0.,12.0,0.,12.0
1980-11-14 21:18:03.680 ,0,0,0.,12.0,0.,12.0,0.,12.0,0.,12.0
1980-11-14 21:18:15.680 ,1,1,0.,12.0,0.,12.0,0.,12.0,0.,12.0
1980-11-14 21:18:27.680 ,1,1,0.,12.0,0.,12.0,0.,12.0,0.,12.0
1980-11-14 21:18:39.680 ,1,0,0.,12.0,0.,12.0,0.,12.0,0.,12.0
1980-11-14 21:18:51.680 ,1,0,0.,12.0,0.,12.0,0.,12.0,0.,12.0
1980-11-14 21:19:03.680 ,2,1,0.,12.0,0.,12.0,0.,12.0,0.,12.0
1980-11-14 21:19:15.680 ,2,1,0.,12.0,0.,12.0,0.,12.0,0.,12.0
1980-11-14 21:19:27.680 ,2,0,0.,12.0,0.,12.0,0.,12.0,0.,12.0
1980-11-14 21:19:39.680 ,2,0,0.,12.0,0.,12.0,0.,12.0,0.,12.0
1980-11-14 21:20:39.680 ,0,0,0.,12.0,0.,12.0,0.,12.0,0.,12.0
1980-11-14 21:20:51.680 ,0,0,0.,12.0,0.,12.0,0.,12.0,0.,12.0
1980-11-14 21:21:03.680 ,0,0,0.,12.0,0.,12.0,0.,12.0,0.,12.0
1980-11-14 21:21:15.680 ,0,0,0.,12.0,0.,12.0,0.,12.0,0.,12.0
1980-11-14 21:21:27.680 ,5,1,0.,12.0,0.,12.0,0.,12.0,0.,12.0
1980-11-14 21:21:39.680 ,5,1,0.,12.0,0.,12.0,0.,12.0,0.,12.0
1980-11-14 21:21:51.680 ,5,0,0.,12.0,0.,12.0,0.,12.0,0.,12.0
1980-11-14 21:22:03.680 ,5,0,0.,12.0,0.,12.0,0.,12.0,0.,12.0
1980-11-14 21:22:15.680 ,6,1,0.,12.0,0.,12.0,0.,12.0,0.,12.0
1980-11-14 21:22:27.680 ,6,1,0.,12.0,0.,12.0,0.,12.0,0.,12.0
1980-11-14 21:22:39.680 ,6,0,0.,12.0,0.,12.0,0.,12.0,0.,12.0
1980-11-14 21:22:51.680 ,6,0,0.,12.0,0.,12.0,0.,12.0,0.,12.0
1980-11-14 21:23:03.680 ,7,1,0.,12.0,0.,12.0,0.,12.0,0.,12.0
1980-11-14 21:23:15.680 ,7,1,0.,12.0,0.,12.0,0.,12.0,0.,12.0
1980-11-14 21:23:27.680 ,7,0,0.,12.0,0.,12.0,0.,12.0,0.,12.0
1980-11-14 21:23:39.680 ,7,0,0.,12.0,0.,12.0,0.,12.0,0.,12.0
1980-11-14 21:23:51.680 ,7,1,0.,12.0,0.,12.0,0.,12.0,0.,12.0
1980-11-14 21:24:03.680 ,7,1,0.,12.0,0.,12.0,0.,12.0,0.,12.0
1980-11-14 21:24:15.680 ,7,0,0.,12.0,0.,12.0,0.,12.0,0.,12.0
1980-11-14 21:24:27.680 ,7,0,0.,12.0,0.,12.0,0.,12.0,0.,12.0
1980-11-14 21:24:39.680 ,6,1,0.,12.0,0.,12.0,0.,12.0,0.,12.0
1980-11-14 21:24:51.680 ,6,1,0.,12.0,0.,12.0,0.,12.0,0.,12.0
1980-11-14 21:25:03.680 ,6,0,0.,12.0,0.,12.0,0.,12.0,0.,12.0
1980-11-14 21:25:15.680 ,6,0,0.,12.0,0.,12.0,0.,12.0,0.,12.0
1980-11-14 21:25:27.680 ,5,1,0.,12.0,0.,12.0,0.,12.0,0.,12.0
1980-11-14 21:25:39.680 ,5,1,0.,12.0,0.,12.0,0.,12.0,0.,12.0
1980-11-14 21:25:51.680 ,5,0,0.,12.0,0.,12.0,0.,12.0,0.,12.0
1980-11-14 21:26:03.680 ,5,0,0.,12.0,0.,12.0,0.,12.0,0.,12.0
1980-11-14 21:26:15.680 ,4,1,0.,12.0,0.,12.0,0.,12.0,0.,12.0
1980-11-14 21:26:27.680 ,4,1,0.,12.0,0.,12.0,0.,12.0,0.,12.0
1980-11-14 21:26:39.680 ,4,0,0.,12.0,0.,12.0,0.,12.0,0.,12.0
1980-11-14 21:26:51.680 ,4,0,0.,12.0,0.,12.0,0.,12.0,0.,12.0
1980-11-14 21:27:03.680 ,3,1,0.,12.0,0.,12.0,0.,12.0,0.,12.0
1980-11-14 21:27:15.680 ,3,1,0.,12.0,0.,12.0,0.,12.0,0.,12.0
1980-11-14 21:27:27.680 ,3,0,0.,12.0,0.,12.0,0.,12.0,0.,12.0
1980-11-14 21:27:39.680 ,3,0,0.,12.0,0.,12.0,0.,12.0,0.,12.0
1980-11-14 21:27:51.680 ,2,1,0.,12.0,0.,12.0,0.,12.0,0.,12.0
1980-11-14 21:28:03.680 ,2,1,0.,12.0,0.,12.0,0.,12.0,0.,12.0
1980-11-14 21:28:15.680 ,2,0,0.,12.0,0.,12.0,0.,12.0,0.,12.0
1980-11-14 21:28:27.680 ,2,0,0.,12.0,0.,12.0,0.,12.0,0.,12.0
1980-11-14 21:28:39.680 ,1,1,0.,12.0,0.,12.0,0.,12.0,0.,12.0
1980-11-14 21:28:51.680 ,1,1,0.,12.0,0.,12.0,0.,12.0,0.,12.0
1980-11-14 21:29:03.680 ,1,0,0.,12.0,0.,12.0,0.,12.0,0.,12.0
1980-11-14 21:29:15.680 ,1,0,0.,12.0,0.,12.0,0.,12.0,0.,12.0
1980-11-14 21:29:27.680 ,0,1,0.,12.0,0.,12.0,0.,12.0,0.,12.0
1980-11-14 21:29:39.680 ,0,1,0.,12.0,0.,12.0,0.,12.0,0.,12.0
1980-11-14 21:29:51.680 ,0,0,0.,12.0,0.,12.0,0.,12.0,0.,12.0
1980-11-14 21:30:03.680 ,0,0,0.,12.0,0.,12.0,0.,12.0,0.,12.0
1980-11-14 21:30:15.680 ,0,1,0.,12.0,0.,12.0,0.,12.0,0.,12.0
1980-11-14 21:30:27.680 ,0,1,0.,12.0,0.,12.0,0.,12.0,0.,12.0
1980-11-14 21:30:39.680 ,0,0,0.,12.0,0.,12.0,0.,12.0,0.,12.0
1980-11-14 21:30:51.680 ,0,0,0.,12.0,0.,12.0,0.,12.0,0.,12.0
1980-11-14 21:31:03.680 ,1,1,0.,12.0,0.,12.0,0.,12.0,0.,12.0
1980-11-14 21:31:15.680 ,1,1,0.,12.0,0.,12.0,0.,12.0,0.,12.0
1980-11-14 21:31:27.680 ,1,0,0.,12.0,0.,12.0,0.,12.0,0.,12.0
1980-11-14 21:31:39.680 ,1,0,0.,12.0,0.,12.0,0.,12.0,0.,12.0
1980-11-14 21:31:51.680 ,2,1,0.,12.0,0.,12.0,0.,12.0,0.,12.0
1980-11-14 21:32:03.680 ,2,1,0.,12.0,0.,12.0,0.,12.0,0.,12.0
1980-11-14 21:32:15.680 ,2,0,0.,12.0,0.,12.0,0.,12.0,0.,12.0
1980-11-14 21:32:27.680 ,2,0,0.,12.0,0.,12.0,0.,12.0,0.,12.0
1980-11-14 21:32:39.680 ,3,1,0.,12.0,0.,12.0,0.,12.0,0.,12.0
1980-11-14 21:32:51.680 ,3,1,0.,12.0,0.,12.0,0.,12.0,0.,12.0
1980-11-14 21:33:03.680 ,3,0,0.,12.0,0.,12.0,0.,12.0,0.,12.0
1980-11-14 21:33:15.680 ,3,0,0.,12.0,0.,12.0,0.,12.0,0.,12.0
1980-11-14 21:33:27.680 ,4,1,0.,12.0,0.,12.0,0.,12.0,0.,12.0
1980-11-14 21:33:39.680 ,4,1,0.,12.0,0.,12.0,0.,12.0,0.,12.0
1980-11-14 21:33:51.680 ,4,0,0.,12.0,0.,12.0,0.,12.0,0.,12.0
1980-11-14 21:34:03.680 ,4,0,0.,12.0,0.,12.0,0.,12.0,0.,12.0
1980-11-14 21:34:15.680 ,0,0,0.,12.0,0.,12.0,0.,12.0,0.,12.0
1980-11-14 21:34:27.680 ,0,0,0.,12.0,0.,12.0,0.,12.0,0.,12.0
1980-11-14 21:34:39.680 ,0,0,,0,,0,,0,,0
1980-11-14 21:34:51.680 ,0,0,,0,,0,,0,,0
1980-11-14 21:35:51.680 ,0,0,0.,12.0,0.,12.0,0.,12.0,0.,12.0
1980-11-14 21:36:03.680 ,0,0,0.,12.0,0.,12.0,0.,12.0,0.,12.0
1980-11-14 21:36:15.680 ,0,0,0.,12.0,0.,12.0,0.,12.0,0.,12.0
1980-11-14 21:36:27.680 ,0,0,0.,12.0,0.,12.0,0.,12.0,0.,12.0
1980-11-14 21:36:39.680 ,7,1,0.,12.0,0.,12.0,0.,12.0,0.,12.0
1980-11-14 21:36:51.680 ,7,1,0.,12.0,0.,12.0,0.,12.0,0.,12.0
1980-11-14 21:37:03.680 ,7,0,0.,12.0,0.,12.0,0.,12.0,0.,12.0
1980-11-14 21:37:15.680 ,7,0,0.,12.0,0.,12.0,0.,12.0,0.,12.0
1980-11-14 21:37:27.680 ,6,1,0.,12.0,0.,12.0,0.,12.0,0.,12.0
1980-11-14 21:37:39.680 ,6,1,1.,12.0,0.,12.0,0.,12.0,0.,12.0
1980-11-14 21:37:51.680 ,6,0,0.,12.0,0.,12.0,0.,12.0,0.,12.0
1980-11-14 21:38:03.680 ,6,0,0.,12.0,0.,12.0,0.,12.0,0.,12.0
1980-11-14 21:38:15.680 ,5,1,0.,12.0,0.,12.0,0.,12.0,0.,12.0
1980-11-14 21:38:27.680 ,5,1,0.,12.0,0.,12.0,0.,12.0,0.,12.0
1980-11-14 21:38:39.680 ,5,0,0.,12.0,0.,12.0,0.,12.0,0.,12.0
1980-11-14 21:38:51.680 ,5,0,0.,12.0,0.,12.0,0.,12.0,0.,12.0
1980-11-14 21:39:03.680 ,4,1,0.,12.0,0.,12.0,0.,12.0,0.,12.0
1980-11-14 21:39:15.680 ,4,1,0.,12.0,0.,12.0,0.,12.0,0.,12.0
1980-11-14 21:39:27.680 ,4,0,0.,12.0,0.,12.0,0.,12.0,0.,12.0
1980-11-14 21:39:39.680 ,4,0,0.,12.0,0.,12.0,0.,12.0,0.,12.0
1980-11-14 21:39:51.680 ,3,1,0.,12.0,0.,12.0,0.,12.0,0.,12.0
1980-11-14 21:40:03.680 ,3,1,0.,12.0,0.,12.0,0.,12.0,0.,12.0
1980-11-14 21:40:15.680 ,3,0,0.,12.0,0.,12.0,0.,12.0,0.,12.0
1980-11-14 21:40:27.680 ,3,0,0.,12.0,0.,12.0,0.,12.0,0.,12.0
1980-11-14 21:40:39.680 ,2,1,0.,12.0,0.,12.0,0.,12.0,0.,12.0
1980-11-14 21:40:51.680 ,2,1,0.,12.0,0.,12.0,0.,12.0,0.,12.0
1980-11-14 21:41:03.680 ,2,0,0.,12.0,0.,12.0,0.,12.0,0.,12.0
1980-11-14 21:41:15.680 ,2,0,0.,12.0,0.,12.0,0.,12.0,0.,12.0
1980-11-14 21:41:27.680 ,1,1,0.,12.0,0.,12.0,0.,12.0,0.,12.0
1980-11-14 21:41:39.680 ,1,1,0.,12.0,0.,12.0,0.,12.0,0.,12.0
1980-11-14 21:41:51.680 ,1,0,0.,12.0,0.,12.0,0.,12.0,0.,12.0
1980-11-14 21:42:03.680 ,1,0,0.,12.0,0.,12.0,0.,12.0,0.,12.0
1980-11-14 21:42:15.680 ,0,1,0.,12.0,0.,12.0,0.,12.0,0.,12.0
1980-11-14 21:42:27.680 ,0,1,0.,12.0,0.,12.0,0.,12.0,0.,12.0
1980-11-14 21:42:39.680 ,0,0,0.,12.0,0.,12.0,0.,12.0,0.,12.0
1980-11-14 21:42:51.680 ,0,0,0.,12.0,0.,12.0,0.,12.0,0.,12.0
1980-11-14 21:43:03.680 ,0,1,0.,12.0,0.,12.0,0.,12.0,0.,12.0
1980-11-14 21:43:15.680 ,0,1,0.,12.0,0.,12.0,0.,12.0,0.,12.0
1980-11-14 21:43:27.680 ,0,0,0.,12.0,0.,12.0,0.,12.0,0.,12.0
1980-11-14 21:43:39.680 ,0,0,0.,12.0,0.,12.0,0.,12.0,0.,12.0
1980-11-14 21:43:51.680 ,1,1,0.,12.0,0.,12.0,0.,12.0,0.,12.0
1980-11-14 21:44:03.680 ,1,1,0.,12.0,0.,12.0,0.,12.0,0.,12.0
1980-11-14 21:44:15.680 ,1,0,0.,12.0,0.,12.0,0.,12.0,0.,12.0
1980-11-14 21:44:27.680 ,1,0,0.,12.0,0.,12.0,0.,12.0,0.,12.0
1980-11-14 21:44:39.680 ,2,1,0.,12.0,0.,12.0,0.,12.0,0.,12.0
1980-11-14 21:44:51.680 ,2,1,0.,12.0,0.,12.0,0.,12.0,0.,12.0
1980-11-14 21:45:03.680 ,2,0,0.,12.0,0.,12.0,0.,12.0,0.,12.0
1980-11-14 21:45:15.680 ,2,0,0.,12.0,0.,12.0,0.,12.0,0.,12.0
1980-11-14 21:45:27.680 ,3,1,0.,12.0,0.,12.0,0.,12.0,0.,12.0
1980-11-14 21:45:39.680 ,3,1,0.,12.0,0.,12.0,0.,12.0,0.,12.0
1980-11-14 21:45:51.680 ,3,0,0.,12.0,0.,12.0,0.,12.0,0.,12.0
1980-11-14 21:46:03.680 ,3,0,0.,12.0,0.,12.0,0.,12.0,0.,12.0
1980-11-14 21:46:15.680 ,4,1,0.,12.0,0.,12.0,0.,12.0,0.,12.0
1980-11-14 21:46:27.680 ,4,1,0.,12.0,0.,12.0,0.,12.0,0.,12.0
1980-11-14 21:46:39.680 ,4,0,0.,12.0,0.,12.0,0.,12.0,0.,12.0
1980-11-14 21:46:51.680 ,4,0,0.,12.0,0.,12.0,0.,12.0,0.,12.0
1980-11-14 21:47:03.680 ,5,1,0.,12.0,0.,12.0,0.,12.0,0.,12.0
1980-11-14 21:47:15.680 ,5,1,0.,12.0,0.,12.0,0.,12.0,0.,12.0
1980-11-14 21:47:27.680 ,5,0,0.,12.0,0.,12.0,0.,12.0,0.,12.0
1980-11-14 21:47:39.680 ,5,0,0.,12.0,0.,12.0,0.,12.0,0.,12.0
1980-11-14 21:47:51.680 ,6,1,0.,12.0,0.,12.0,0.,12.0,0.,12.0
1980-11-14 21:48:03.680 ,6,1,0.,12.0,0.,12.0,0.,12.0,0.,12.0
1980-11-14 21:48:15.680 ,6,0,0.,12.0,0.,12.0,0.,12.0,0.,12.0
1980-11-14 21:48:27.680 ,6,0,0.,12.0,0.,12.0,0.,12.0,0.,12.0
1980-11-14 21:48:39.680 ,7,1,0.,12.0,0.,12.0,0.,12.0,0.,12.0
1980-11-14 21:48:51.680 ,7,1,0.,12.0,0.,12.0,0.,12.0,0.,12.0
1980-11-14 21:49:03.680 ,7,0,0.,12.0,0.,12.0,0.,12.0,0.,12.0
1980-11-14 21:49:15.680 ,7,0,0.,12.0,0.,12.0,0.,12.0,0.,12.0
1980-11-14 21:49:27.680 ,7,1,0.,12.0,0.,12.0,0.,12.0,0.,12.0
1980-11-14 21:49:39.680 ,7,1,0.,12.0,0.,12.0,0.,12.0,0.,12.0
1980-11-14 21:49:51.680 ,7,0,0.,12.0,0.,12.0,0.,12.0,0.,12.0
1980-11-14 21:50:03.680 ,7,0,0.,12.0,0.,12.0,0.,12.0,0.,12.0
1980-11-14 21:50:15.680 ,6,1,0.,12.0,0.,12.0,0.,12.0,0.,12.0
1980-11-14 21:50:27.680 ,6,1,0.,12.0,0.,12.0,0.,12.0,0.,12.0
1980-11-14 21:50:39.680 ,6,0,0.,12.0,0.,12.0,0.,12.0,0.,12.0
1980-11-14 21:50:51.680 ,6,0,0.,12.0,0.,12.0,0.,12.0,0.,12.0
1980-11-14 21:51:03.680 ,5,1,0.,12.0,0.,12.0,0.,12.0,0.,12.0
1980-11-14 21:51:15.680 ,5,1,0.,12.0,0.,12.0,0.,12.0,0.,12.0
1980-11-14 21:51:27.680 ,5,0,0.,12.0,0.,12.0,0.,12.0,0.,12.0
1980-11-14 21:51:39.680 ,5,0,0.,12.0,0.,12.0,0.,12.0,0.,12.0
1980-11-14 21:51:51.680 ,4,1,0.,12.0,0.,12.0,0.,12.0,0.,12.0
1980-11-14 21:52:03.680 ,4,1,0.,12.0,0.,12.0,0.,12.0,0.,12.0
1980-11-14 21:52:15.680 ,4,0,0.,12.0,0.,12.0,0.,12.0,0.,12.0
1980-11-14 21:52:27.680 ,4,0,0.,12.0,0.,12.0,0.,12.0,0.,12.0
1980-11-14 21:52:39.680 ,3,1,0.,12.0,0.,12.0,0.,12.0,0.,12.0
1980-11-14 21:52:51.680 ,3,1,0.,12.0,0.,12.0,0.,12.0,0.,12.0
1980-11-14 21:53:03.680 ,3,0,0.,12.0,0.,12.0,0.,12.0,0.,12.0
1980-11-14 21:53:15.680 ,3,0,0.,12.0,0.,12.0,0.,12.0,0.,12.0
1980-11-14 21:53:27.680 ,2,1,0.,12.0,0.,12.0,0.,12.0,0.,12.0
1980-11-14 21:53:39.680 ,2,1,0.,12.0,0.,12.0,0.,12.0,0.,12.0
1980-11-14 21:53:51.680 ,2,0,0.,12.0,0.,12.0,0.,12.0,0.,12.0
1980-11-14 21:54:03.680 ,2,0,0.,12.0,0.,12.0,0.,12.0,0.,12.0
1980-11-14 21:54:15.680 ,1,1,0.,12.0,0.,12.0,0.,12.0,0.,12.0
1980-11-14 21:54:27.680 ,1,1,0.,12.0,0.,12.0,0.,12.0,0.,12.0
1980-11-14 21:54:39.680 ,1,0,0.,12.0,0.,12.0,0.,12.0,0.,12.0
1980-11-14 21:54:51.680 ,1,0,0.,12.0,0.,12.0,0.,12.0,0.,12.0
1980-11-14 21:55:03.680 ,0,1,0.,12.0,0.,12.0,0.,12.0,0.,12.0
1980-11-14 21:55:15.680 ,0,1,0.,12.0,0.,12.0,0.,12.0,0.,12.0
1980-11-14 21:55:27.680 ,0,0,0.,12.0,0.,12.0,0.,12.0,0.,12.0
1980-11-14 21:55:39.680 ,0,0,0.,12.0,0.,12.0,0.,12.0,0.,12.0
1980-11-14 21:55:51.680 ,0,1,0.,12.0,0.,12.0,0.,12.0,0.,12.0
1980-11-14 21:56:03.680 ,0,1,0.,12.0,0.,12.0,0.,12.0,0.,12.0
1980-11-14 21:56:15.680 ,0,0,0.,12.0,0.,12.0,0.,12.0,0.,12.0
1980-11-14 21:56:27.680 ,0,0,0.,12.0,0.,12.0,0.,12.0,0.,12.0
1980-11-14 21:56:39.680 ,1,1,0.,12.0,0.,12.0,0.,12.0,0.,12.0
1980-11-14 21:56:51.680 ,1,1,0.,12.0,0.,12.0,0.,12.0,0.,12.0
1980-11-14 21:57:03.680 ,1,0,0.,12.0,0.,12.0,0.,12.0,0.,12.0
1980-11-14 21:57:15.680 ,1,0,0.,12.0,0.,12.0,0.,12.0,0.,12.0
1980-11-14 21:57:27.680 ,2,1,0.,12.0,0.,12.0,0.,12.0,0.,12.0
1980-11-14 21:57:39.680 ,2,1,0.,12.0,0.,12.0,0.,12.0,0.,12.0
1980-11-14 21:57:51.680 ,2,0,0.,12.0,0.,12.0,0.,12.0,0.,12.0
1980-11-14 21:58:03.680 ,2,0,0.,12.0,0.,12.0,0.,12.0,0.,12.0
1980-11-14 21:58:15.680 ,3,1,0.,12.0,0.,12.0,0.,12.0,0.,12.0
1980-11-14 21:58:27.680 ,3,1,0.,12.0,0.,12.0,0.,12.0,0.,12.0
1980-11-14 21:58:39.680 ,3,0,0.,12.0,0.,12.0,0.,12.0,0.,12.0
1980-11-14 21:58:51.680 ,3,0,0.,12.0,0.,12.0,0.,12.0,0.,12.0
1980-11-14 21:59:03.680 ,4,1,0.,12.0,0.,12.0,0.,12.0,0.,12.0
1980-11-14 21:59:15.680 ,4,1,0.,12.0,0.,12.0,0.,12.0,0.,12.0
1980-11-14 21:59:27.680 ,4,0,0.,12.0,0.,12.0,0.,12.0,0.,12.0
1980-11-14 21:59:39.680 ,4,0,0.,12.0,0.,12.0,0.,12.0,0.,12.0
1980-11-14 21:59:51.680 ,5,1,0.,12.0,0.,12.0,0.,12.0,0.,12.0
1980-11-14 22:00:03.680 ,5,1,0.,12.0,0.,12.0,0.,12.0,0.,12.0
1980-11-14 22:00:15.680 ,5,0,0.,12.0,0.,12.0,0.,12.0,0.,12.0
1980-11-14 22:00:27.680 ,5,0,0.,12.0,0.,12.0,0.,12.0,0.,12.0
1980-11-14 22:00:39.680 ,6,1,0.,12.0,0.,12.0,0.,12.0,0.,12.0
1980-11-14 22:00:51.680 ,6,1,0.,12.0,0.,12.0,0.,12.0,0.,12.0
1980-11-14 22:01:03.680 ,6,0,0.,12.0,0.,12.0,0.,12.0,0.,12.0
1980-11-14 22:01:15.680 ,6,0,0.,12.0,0.,12.0,0.,12.0,0.,12.0
1980-11-14 22:01:27.680 ,7,1,0.,12.0,0.,12.0,0.,12.0,0.,12.0
1980-11-14 22:01:39.680 ,7,1,0.,12.0,0.,12.0,0.,12.0,0.,12.0
1980-11-14 22:01:51.680 ,7,0,0.,12.0,0.,12.0,0.,12.0,0.,12.0
1980-11-14 22:02:03.680 ,7,0,0.,12.0,0.,12.0,0.,12.0,0.,12.0
1980-11-14 22:02:15.680 ,7,1,0.,12.0,0.,12.0,0.,12.0,0.,12.0
1980-11-14 22:02:27.680 ,7,1,0.,12.0,0.,12.0,0.,12.0,0.,12.0
1980-11-14 22:02:39.680 ,7,0,0.,12.0,0.,12.0,0.,12.0,0.,12.0
1980-11-14 22:02:51.680 ,7,0,0.,12.0,0.,12.0,0.,12.0,0.,12.0
1980-11-14 22:03:03.680 ,6,1,0.,12.0,0.,12.0,0.,12.0,0.,12.0
1980-11-14 22:03:15.680 ,6,1,0.,12.0,0.,12.0,0.,12.0,0.,12.0
1980-11-14 22:03:27.680 ,6,0,0.,12.0,0.,12.0,0.,12.0,0.,12.0
1980-11-14 22:03:39.680 ,6,0,0.,12.0,0.,12.0,0.,12.0,0.,12.0
1980-11-14 22:03:51.680 ,5,1,0.,12.0,0.,12.0,0.,12.0,0.,12.0
1980-11-14 22:04:03.680 ,5,1,0.,12.0,0.,12.0,0.,12.0,0.,12.0
1980-11-14 22:04:15.680 ,5,0,0.,12.0,0.,12.0,0.,12.0,0.,12.0
1980-11-14 22:04:27.680 ,5,0,0.,12.0,0.,12.0,0.,12.0,0.,12.0
1980-11-14 22:04:39.680 ,4,1,0.,12.0,0.,12.0,0.,12.0,0.,12.0
1980-11-14 22:04:51.680 ,4,1,0.,12.0,0.,12.0,0.,12.0,0.,12.0
1980-11-14 22:05:03.680 ,4,0,0.,12.0,0.,12.0,0.,12.0,0.,12.0
1980-11-14 22:05:15.680 ,4,0,0.,12.0,0.,12.0,0.,12.0,0.,12.0
1980-11-14 22:05:27.680 ,3,1,0.,12.0,0.,12.0,0.,12.0,0.,12.0
1980-11-14 22:05:39.680 ,3,1,0.,12.0,0.,12.0,0.,12.0,0.,12.0
1980-11-14 22:05:51.680 ,3,0,0.,12.0,0.,12.0,0.,12.0,0.,12.0
1980-11-14 22:06:03.680 ,3,0,0.,12.0,0.,12.0,0.,12.0,0.,12.0
1980-11-14 22:06:15.680 ,2,1,0.,12.0,0.,12.0,0.,12.0,0.,12.0
1980-11-14 22:06:27.680 ,2,1,0.,12.0,0.,12.0,0.,12.0,0.,12.0
1980-11-14 22:06:39.680 ,2,0,0.,12.0,0.,12.0,0.,12.0,0.,12.0
1980-11-14 22:06:51.680 ,2,0,0.,12.0,0.,12.0,0.,12.0,0.,12.0
1980-11-14 22:07:03.680 ,1,1,0.,12.0,0.,12.0,0.,12.0,0.,12.0
1980-11-14 22:07:15.680 ,1,1,0.,12.0,0.,12.0,0.,12.0,0.,12.0
1980-11-14 22:07:27.680 ,1,0,0.,12.0,0.,12.0,0.,12.0,0.,12.0
1980-11-14 22:07:39.680 ,1,0,0.,12.0,0.,12.0,0.,12.0,0.,12.0
1980-11-14 22:07:51.680 ,0,1,0.,12.0,0.,12.0,0.,12.0,0.,12.0
1980-11-14 22:08:03.680 ,0,1,0.,12.0,0.,12.0,0.,12.0,0.,12.0
1980-11-14 22:08:15.680 ,0,0,0.,12.0,0.,12.0,0.,12.0,0.,12.0
1980-11-14 22:08:27.680 ,0,0,0.,12.0,0.,12.0,0.,12.0,0.,12.0
1980-11-14 22:08:39.680 ,0,1,0.,12.0,0.,12.0,0.,12.0,0.,12.0
1980-11-14 22:08:51.680 ,0,1,0.,12.0,0.,12.0,0.,12.0,0.,12.0
1980-11-14 22:09:03.680 ,0,0,0.,12.0,0.,12.0,0.,12.0,0.,12.0
1980-11-14 22:09:15.680 ,0,0,0.,12.0,0.,12.0,0.,12.0,0.,12.0
1980-11-14 22:09:27.680 ,1,1,0.,12.0,0.,12.0,0.,12.0,0.,12.0
1980-11-14 22:09:39.680 ,1,1,0.,12.0,0.,12.0,0.,12.0,0.,12.0
1980-11-14 22:09:51.680 ,1,0,0.,12.0,0.,12.0,0.,12.0,0.,12.0
1980-11-14 22:10:03.680 ,1,0,0.,12.0,0.,12.0,0.,12.0,0.,12.0
1980-11-14 22:10:15.680 ,2,1,0.,12.0,0.,12.0,0.,12.0,0.,12.0
1980-11-14 22:10:27.680 ,2,1,0.,12.0,0.,12.0,0.,12.0,0.,12.0
1980-11-14 22:10:39.680 ,2,0,0.,12.0,0.,12.0,0.,12.0,0.,12.0
1980-11-14 22:10:51.680 ,2,0,0.,12.0,0.,12.0,0.,12.0,0.,12.0
1980-11-14 22:11:03.680 ,3,1,0.,12.0,0.,12.0,0.,12.0,0.,12.0
1980-11-14 22:11:15.680 ,3,1,0.,12.0,0.,12.0,0.,12.0,0.,12.0
1980-11-14 22:11:27.680 ,3,0,0.,12.0,0.,12.0,0.,12.0,0.,12.0
1980-11-14 22:11:39.680 ,3,0,0.,12.0,0.,12.0,0.,12.0,0.,12.0
1980-11-14 22:11:51.680 ,4,1,0.,12.0,0.,12.0,0.,12.0,0.,12.0
1980-11-14 22:12:03.680 ,4,1,0.,12.0,0.,12.0,0.,12.0,0.,12.0
1980-11-14 22:12:15.680 ,4,0,0.,12.0,0.,12.0,0.,12.0,0.,12.0
1980-11-14 22:12:27.680 ,4,0,0.,12.0,0.,12.0,0.,12.0,0.,12.0
1980-11-14 22:12:39.680 ,5,1,0.,12.0,0.,12.0,0.,12.0,0.,12.0
1980-11-14 22:12:51.680 ,5,1,0.,12.0,0.,12.0,0.,12.0,0.,12.0
1980-11-14 22:13:03.680 ,5,0,0.,12.0,0.,12.0,0.,12.0,0.,12.0
1980-11-14 22:13:15.680 ,5,0,0.,12.0,0.,12.0,0.,12.0,0.,12.0
1980-11-14 22:13:27.680 ,6,1,0.,12.0,0.,12.0,0.,12.0,0.,12.0
1980-11-14 22:13:39.680 ,6,1,0.,12.0,0.,12.0,0.,12.0,0.,12.0
1980-11-14 22:13:51.680 ,6,0,0.,12.0,0.,12.0,0.,12.0,0.,12.0
1980-11-14 22:14:03.680 ,6,0,0.,12.0,0.,12.0,0.,12.0,0.,12.0
1980-11-14 22:14:15.680 ,7,1,0.,12.0,0.,12.0,0.,12.0,0.,12.0
1980-11-14 22:14:27.680 ,7,1,0.,12.0,0.,12.0,0.,12.0,0.,12.0
1980-11-14 22:14:39.680 ,7,0,0.,12.0,0.,12.0,0.,12.0,0.,12.0
1980-11-14 22:14:51.680 ,7,0,0.,12.0,0.,12.0,0.,12.0,0.,12.0
1980-11-14 22:15:03.680 ,7,1,0.,12.0,0.,12.0,0.,12.0,0.,12.0
1980-11-14 22:15:15.680 ,7,1,0.,12.0,0.,12.0,0.,12.0,0.,12.0
1980-11-14 22:15:27.680 ,7,0,0.,12.0,0.,12.0,0.,12.0,0.,12.0
1980-11-14 22:15:39.680 ,7,0,0.,12.0,0.,12.0,0.,12.0,0.,12.0
1980-11-14 22:15:51.680 ,6,1,0.,12.0,0.,12.0,0.,12.0,0.,12.0
1980-11-14 22:16:03.680 ,6,1,0.,12.0,0.,12.0,0.,12.0,0.,12.0
1980-11-14 22:16:15.680 ,6,0,0.,12.0,0.,12.0,0.,12.0,0.,12.0
1980-11-14 22:16:27.680 ,6,0,0.,12.0,0.,12.0,0.,12.0,0.,12.0
1980-11-14 22:16:39.680 ,5,1,0.,12.0,0.,12.0,0.,12.0,0.,12.0
1980-11-14 22:16:51.680 ,5,1,0.,12.0,0.,12.0,0.,12.0,0.,12.0
1980-11-14 22:17:03.680 ,5,0,0.,12.0,0.,12.0,0.,12.0,0.,12.0
1980-11-14 22:17:15.680 ,5,0,0.,12.0,0.,12.0,0.,12.0,0.,12.0
1980-11-14 22:17:27.680 ,4,1,0.,12.0,0.,12.0,0.,12.0,0.,12.0
1980-11-14 22:17:39.680 ,4,1,0.,12.0,0.,12.0,0.,12.0,0.,12.0
1980-11-14 22:17:51.680 ,4,0,0.,12.0,0.,12.0,0.,12.0,0.,12.0
1980-11-14 22:18:03.680 ,4,0,0.,12.0,0.,12.0,0.,12.0,0.,12.0
1980-11-14 22:18:15.680 ,3,1,0.,12.0,0.,12.0,0.,12.0,0.,12.0
1980-11-14 22:18:27.680 ,3,1,0.,12.0,0.,12.0,0.,12.0,0.,12.0
1980-11-14 22:18:39.680 ,3,0,0.,12.0,0.,12.0,0.,12.0,0.,12.0
1980-11-14 22:18:51.680 ,3,0,0.,12.0,0.,12.0,0.,12.0,0.,12.0